| time (UTC) | temp F | wind direction | speed MPH | gust MPH | rain 1hr in | rain 24hr in | rain mn in | humidity % | barometer mb |
| 20260831225522 | 80 | 243 | 2.0 | 13.0 | 0.00 | 0.00 | 0.00 | 39 | 1014.0 |
| 20260831225020 | 80 | 181 | 3.0 | 13.0 | 0.00 | 0.00 | 0.00 | 38 | 1014.1 |
| 20260831224520 | 81 | 222 | 2.0 | 10.0 | 0.00 | 0.00 | 0.00 | 39 | 1014.1 |
| 20260831224019 | 81 | 166 | 1.0 | 11.0 | 0.00 | 0.00 | 0.00 | 39 | 1014.1 |
| 20260831223519 | 81 | 181 | 2.0 | 11.0 | 0.00 | 0.00 | 0.00 | 37 | 1014.2 |
| 20260831222519 | 81 | 193 | 1.0 | 11.0 | 0.00 | 0.00 | 0.00 | 37 | 1014.3 |
| 20260831222018 | 81 | 192 | 1.0 | 10.0 | 0.00 | 0.00 | 0.00 | 38 | 1014.3 |
| 20260831221518 | 81 | 237 | 2.0 | 9.0 | 0.00 | 0.00 | 0.00 | 38 | 1014.3 |
| 20260831221018 | 81 | 232 | 2.0 | 14.0 | 0.00 | 0.00 | 0.00 | 37 | 1014.4 |
| 20260831220517 | 82 | 186 | 3.0 | 14.0 | 0.00 | 0.00 | 0.00 | 35 | 1014.4 |
| 20260831220022 | 82 | 189 | 1.0 | 9.0 | 0.00 | 0.00 | 0.00 | 35 | 1014.4 |
| 20260831215517 | 82 | 215 | 1.0 | 10.0 | 0.00 | 0.00 | 0.00 | 34 | 1014.5 |
| 20260831215017 | 82 | 222 | 1.0 | 10.0 | 0.00 | 0.00 | 0.00 | 34 | 1014.5 |
| 20260831214518 | 83 | 215 | 2.0 | 10.0 | 0.00 | 0.00 | 0.00 | 34 | 1014.6 |
| 20260831214019 | 84 | 190 | 1.0 | 10.0 | 0.00 | 0.00 | 0.00 | 34 | 1014.6 |
| 20260831213516 | 84 | 216 | 0.0 | 8.0 | 0.00 | 0.00 | 0.00 | 35 | 1014.7 |
| 20260831212521 | 84 | 251 | 0.0 | 5.0 | 0.00 | 0.00 | 0.00 | 36 | 1014.6 |
| 20260831212020 | 83 | 224 | 0.0 | 5.0 | 0.00 | 0.00 | 0.00 | 35 | 1014.6 |
| 20260831211517 | 83 | 274 | 0.0 | 5.0 | 0.00 | 0.00 | 0.00 | 34 | 1014.6 |
| 20260831211017 | 83 | 197 | 0.0 | 4.0 | 0.00 | 0.00 | 0.00 | 36 | 1014.6 |
| 20260831210517 | 83 | 224 | 0.0 | 8.0 | 0.00 | 0.00 | 0.00 | 36 | 1014.7 |
| 20260831210020 | 84 | 241 | 0.0 | 8.0 | 0.00 | 0.00 | 0.00 | 36 | 1014.7 |
| 20260831205516 | 84 | 257 | 0.0 | 4.0 | 0.00 | 0.00 | 0.00 | 35 | 1014.7 |
| 20260831205016 | 85 | 244 | 0.0 | 2.0 | 0.00 | 0.00 | 0.00 | 33 | 1014.7 |
| 20260831204516 | 85 | 226 | 0.0 | 0.0 | 0.00 | 0.00 | 0.00 | 29 | 1014.7 |
| 20260831204018 | 85 | 226 | 0.0 | 0.0 | 0.00 | 0.00 | 0.00 | 30 | 1014.6 |
| 20260831203515 | 85 | 224 | 0.0 | 0.0 | 0.00 | 0.00 | 0.00 | 32 | 1014.7 |
| 20260831202513 | 85 | 224 | 0.0 | 0.0 | 0.00 | 0.00 | 0.00 | 37 | 1014.8 |
| 20260831202013 | 85 | 224 | 0.0 | 0.0 | 0.00 | 0.00 | 0.00 | 36 | 1014.8 |
| 20260831201513 | 85 | 224 | 0.0 | 0.0 | 0.00 | 0.00 | 0.00 | 37 | 1014.9 |
| 20260831201015 | 84 | 224 | 0.0 | 0.0 | 0.00 | 0.00 | 0.00 | 35 | 1014.8 |
| 20260831200516 | 84 | 224 | 0.0 | 0.0 | 0.00 | 0.00 | 0.00 | 37 | 1014.8 |
| 20260831200020 | 83 | 224 | 0.0 | 1.0 | 0.00 | 0.00 | 0.00 | 39 | 1014.8 |
| 20260831195509 | 83 | 224 | 0.0 | 1.0 | 0.00 | 0.00 | 0.00 | 39 | 1014.9 |
| 20260831195007 | 83 | 224 | 0.0 | 1.0 | 0.00 | 0.00 | 0.00 | 39 | 1014.9 |
| 20260831194510 | 82 | 224 | 0.0 | 3.0 | 0.00 | 0.00 | 0.00 | 39 | 1014.8 |
| 20260831194005 | 82 | 240 | 0.0 | 3.0 | 0.00 | 0.00 | 0.00 | 37 | 1014.9 |
| 20260831193507 | 80 | 246 | 0.0 | 3.0 | 0.00 | 0.00 | 0.00 | 40 | 1015.0 |
| 20260831192505 | 80 | 136 | 0.0 | 1.0 | 0.00 | 0.00 | 0.00 | 43 | 1015.2 |
| 20260831192010 | 80 | 135 | 0.0 | 3.0 | 0.00 | 0.00 | 0.00 | 43 | 1015.2 |
| 20260831191505 | 81 | 107 | 0.0 | 4.0 | 0.00 | 0.00 | 0.00 | 43 | 1015.3 |
| 20260831191004 | 80 | 99 | 0.0 | 5.0 | 0.00 | 0.00 | 0.00 | 37 | 1015.3 |
| 20260831190503 | 80 | 90 | 0.0 | 5.0 | 0.00 | 0.00 | 0.00 | 38 | 1015.3 |
| 20260831190005 | 80 | 99 | 0.0 | 4.0 | 0.00 | 0.00 | 0.00 | 38 | 1015.3 |
| 20260831185502 | 79 | 103 | 0.0 | 5.0 | 0.00 | 0.00 | 0.00 | 40 | 1015.4 |
| 20260831185101 | 79 | 90 | 1.0 | 5.0 | 0.00 | 0.00 | 0.00 | 41 | 1015.5 |
| 20260831184628 | 79 | 102 | 0.0 | 4.0 | 0.00 | 0.00 | 0.00 | 40 | 1015.5 |
| 20260831184102 | 78 | 90 | 0.0 | 2.0 | 0.00 | 0.00 | 0.00 | 41 | 1015.5 |
| 20260831183601 | 78 | 91 | 0.0 | 3.0 | 0.00 | 0.00 | 0.00 | 41 | 1015.5 |
| 20260831182558 | 77 | 77 | 0.0 | 4.0 | 0.00 | 0.00 | 0.00 | 39 | 1015.5 |
| 20260831182055 | 77 | 70 | 0.0 | 3.0 | 0.00 | 0.00 | 0.00 | 40 | 1015.5 |
| 20260831181555 | 75 | 57 | 0.0 | 3.0 | 0.00 | 0.00 | 0.00 | 44 | 1015.6 |
| 20260831181053 | 75 | 52 | 0.0 | 3.0 | 0.00 | 0.00 | 0.00 | 45 | 1015.5 |
| 20260831180553 | 74 | 46 | 0.0 | 2.0 | 0.00 | 0.00 | 0.00 | 48 | 1015.6 |
| 20260831180053 | 74 | 45 | 0.0 | 1.0 | 0.00 | 0.00 | 0.00 | 47 | 1015.6 |
| 20260831175556 | 75 | 46 | 0.0 | 1.0 | 0.00 | 0.00 | 0.00 | 47 | 1015.7 |
| 20260831175053 | 75 | 134 | 0.0 | 0.0 | 0.00 | 0.00 | 0.00 | 47 | 1015.7 |
| 20260831174606 | 75 | 134 | 0.0 | 1.0 | 0.00 | 0.00 | 0.00 | 48 | 1015.7 |
| 20260831174052 | 75 | 134 | 0.0 | 2.0 | 0.00 | 0.00 | 0.00 | 47 | 1015.7 |
| 20260831173552 | 75 | 136 | 0.0 | 2.0 | 0.00 | 0.00 | 0.00 | 47 | 1015.8 |
| 20260831172550 | 74 | 259 | 0.0 | 0.0 | 0.00 | 0.00 | 0.00 | 50 | 1015.8 |
| 20260831172048 | 73 | 259 | 0.0 | 0.0 | 0.00 | 0.00 | 0.00 | 51 | 1015.8 |
| 20260831171547 | 72 | 259 | 0.0 | 0.0 | 0.00 | 0.00 | 0.00 | 53 | 1015.8 |
| 20260831171046 | 71 | 259 | 0.0 | 0.0 | 0.00 | 0.00 | 0.00 | 54 | 1015.8 |
| 20260831170545 | 71 | 259 | 0.0 | 0.0 | 0.00 | 0.00 | 0.00 | 57 | 1015.7 |
| 20260831170042 | 70 | 259 | 0.0 | 0.0 | 0.00 | 0.00 | 0.00 | 55 | 1015.7 |
| 20260831165541 | 69 | 259 | 0.0 | 0.0 | 0.00 | 0.00 | 0.00 | 57 | 1015.6 |
| 20260831165040 | 69 | 259 | 0.0 | 0.0 | 0.00 | 0.00 | 0.00 | 60 | 1015.7 |
| 20260831164540 | 68 | 259 | 0.0 | 0.0 | 0.00 | 0.00 | 0.00 | 61 | 1015.6 |
| 20260831164040 | 68 | 259 | 0.0 | 0.0 | 0.00 | 0.00 | 0.00 | 62 | 1015.6 |
| 20260831163537 | 67 | 259 | 0.0 | 0.0 | 0.00 | 0.00 | 0.00 | 65 | 1015.7 |
| 20260831162536 | 66 | 278 | 0.0 | 1.0 | 0.00 | 0.00 | 0.00 | 66 | 1015.7 |
| 20260831162034 | 65 | 278 | 0.0 | 1.0 | 0.00 | 0.00 | 0.00 | 67 | 1015.7 |
| 20260831161533 | 65 | 279 | 0.0 | 4.0 | 0.00 | 0.00 | 0.00 | 68 | 1015.8 |
| 20260831161033 | 65 | 289 | 0.0 | 4.0 | 0.00 | 0.00 | 0.00 | 67 | 1015.8 |
| 20260831160532 | 65 | 200 | 0.0 | 5.0 | 0.00 | 0.00 | 0.00 | 67 | 1015.9 |
| 20260831160034 | 64 | 291 | 0.0 | 6.0 | 0.00 | 0.00 | 0.00 | 68 | 1016.0 |
| 20260831155532 | 64 | 278 | 0.0 | 4.0 | 0.00 | 0.00 | 0.00 | 68 | 1015.9 |
| 20260831155032 | 64 | 278 | 0.0 | 3.0 | 0.00 | 0.00 | 0.00 | 68 | 1016.0 |
| 20260831154534 | 64 | 288 | 0.0 | 3.0 | 0.00 | 0.00 | 0.00 | 68 | 1015.9 |
| 20260831154033 | 64 | 290 | 0.0 | 4.0 | 0.00 | 0.00 | 0.00 | 68 | 1015.8 |
| 20260831153533 | 64 | 290 | 0.0 | 4.0 | 0.00 | 0.00 | 0.00 | 66 | 1015.9 |
| 20260831152531 | 64 | 237 | 0.0 | 1.0 | 0.00 | 0.00 | 0.00 | 66 | 1015.8 |
| 20260831152032 | 64 | 234 | 0.0 | 0.0 | 0.00 | 0.00 | 0.00 | 65 | 1015.7 |
| 20260831151533 | 64 | 232 | 0.0 | 0.0 | 0.00 | 0.00 | 0.00 | 66 | 1015.8 |
| 20260831151030 | 64 | 187 | 0.0 | 0.0 | 0.00 | 0.00 | 0.00 | 65 | 1015.7 |
| 20260831150528 | 64 | 164 | 0.0 | 2.0 | 0.00 | 0.00 | 0.00 | 69 | 1015.7 |
| 20260831150028 | 64 | 164 | 0.0 | 2.0 | 0.00 | 0.00 | 0.00 | 68 | 1015.6 |
| 20260831145530 | 64 | 164 | 0.0 | 0.0 | 0.00 | 0.00 | 0.00 | 68 | 1015.6 |
| 20260831145027 | 64 | 164 | 0.0 | 0.0 | 0.00 | 0.00 | 0.00 | 66 | 1015.5 |
| 20260831144535 | 63 | 164 | 0.0 | 0.0 | 0.00 | 0.00 | 0.00 | 68 | 1015.5 |
| 20260831144026 | 63 | 164 | 0.0 | 0.0 | 0.00 | 0.00 | 0.00 | 67 | 1015.5 |
| 20260831143526 | 63 | 276 | 0.0 | 0.0 | 0.00 | 0.00 | 0.00 | 68 | 1015.5 |
| 20260831142528 | 62 | 276 | 0.0 | 0.0 | 0.00 | 0.00 | 0.00 | 71 | 1015.4 |
| 20260831142027 | 61 | 276 | 0.0 | 0.0 | 0.00 | 0.00 | 0.00 | 72 | 1015.4 |
| 20260831141527 | 61 | 276 | 0.0 | 0.0 | 0.00 | 0.00 | 0.00 | 72 | 1015.3 |
| 20260831141026 | 61 | 276 | 0.0 | 0.0 | 0.00 | 0.00 | 0.00 | 71 | 1015.3 |
| 20260831140525 | 60 | 276 | 0.0 | 0.0 | 0.00 | 0.00 | 0.00 | 71 | 1015.2 |
| 20260831140025 | 60 | 276 | 0.0 | 0.0 | 0.00 | 0.00 | 0.00 | 72 | 1015.2 |
| 20260831135525 | 60 | 276 | 0.0 | 0.0 | 0.00 | 0.00 | 0.00 | 73 | 1015.2 |
| 20260831135025 | 60 | 276 | 0.0 | 2.0 | 0.00 | 0.00 | 0.00 | 73 | 1015.2 |
| 20260831134525 | 60 | 276 | 0.0 | 2.0 | 0.00 | 0.00 | 0.00 | 73 | 1015.1 |
| 20260831134027 | 60 | 262 | 0.0 | 0.0 | 0.00 | 0.00 | 0.00 | 73 | 1015.1 |
| 20260831133523 | 60 | 262 | 0.0 | 0.0 | 0.00 | 0.00 | 0.00 | 72 | 1015.0 |
| 20260831132522 | 60 | 262 | 0.0 | 0.0 | 0.00 | 0.00 | 0.00 | 71 | 1014.9 |
| 20260831132022 | 60 | 262 | 0.0 | 0.0 | 0.00 | 0.00 | 0.00 | 71 | 1014.8 |
| 20260831131520 | 60 | 262 | 0.0 | 0.0 | 0.00 | 0.00 | 0.00 | 70 | 1014.8 |
| 20260831131021 | 60 | 261 | 0.0 | 0.0 | 0.00 | 0.00 | 0.00 | 69 | 1014.8 |
| 20260831130520 | 60 | 126 | 0.0 | 0.0 | 0.00 | 0.00 | 0.00 | 68 | 1014.7 |
| 20260831130022 | 61 | 240 | 0.0 | 0.0 | 0.00 | 0.00 | 0.00 | 67 | 1014.7 |
| 20260831125520 | 60 | 240 | 0.0 | 0.0 | 0.00 | 0.00 | 0.00 | 68 | 1014.7 |
| 20260831125020 | 60 | 228 | 0.0 | 0.0 | 0.00 | 0.00 | 0.00 | 69 | 1014.8 |
| 20260831124520 | 60 | 228 | 0.0 | 0.0 | 0.00 | 0.00 | 0.00 | 72 | 1014.7 |
| 20260831124019 | 60 | 228 | 0.0 | 0.0 | 0.00 | 0.00 | 0.00 | 74 | 1014.8 |
| 20260831123518 | 60 | 228 | 0.0 | 0.0 | 0.00 | 0.00 | 0.00 | 80 | 1014.8 |
| 20260831122518 | 60 | 228 | 0.0 | 0.0 | 0.00 | 0.00 | 0.00 | 76 | 1014.7 |
| 20260831122017 | 60 | 228 | 0.0 | 0.0 | 0.00 | 0.00 | 0.00 | 76 | 1014.8 |
| 20260831121531 | 60 | 228 | 0.0 | 0.0 | 0.00 | 0.00 | 0.00 | 74 | 1014.7 |
| 20260831121016 | 61 | 228 | 0.0 | 0.0 | 0.00 | 0.00 | 0.00 | 72 | 1014.7 |
| 20260831120518 | 61 | 228 | 0.0 | 0.0 | 0.00 | 0.00 | 0.00 | 72 | 1014.7 |
| 20260831120020 | 61 | 228 | 0.0 | 0.0 | 0.00 | 0.00 | 0.00 | 73 | 1014.7 |
| 20260831115515 | 61 | 228 | 0.0 | 0.0 | 0.00 | 0.00 | 0.00 | 71 | 1014.7 |
| 20260831115015 | 61 | 228 | 0.0 | 0.0 | 0.00 | 0.00 | 0.00 | 71 | 1014.7 |
| 20260831114518 | 61 | 228 | 0.0 | 0.0 | 0.00 | 0.00 | 0.00 | 71 | 1014.7 |
| 20260831114017 | 61 | 228 | 0.0 | 0.0 | 0.00 | 0.00 | 0.00 | 73 | 1014.6 |
| 20260831113515 | 61 | 228 | 0.0 | 0.0 | 0.00 | 0.00 | 0.00 | 72 | 1014.6 |
| 20260831112515 | 61 | 228 | 0.0 | 0.0 | 0.00 | 0.00 | 0.00 | 68 | 1014.5 |
| 20260831112014 | 61 | 228 | 0.0 | 0.0 | 0.00 | 0.00 | 0.00 | 69 | 1014.5 |
| 20260831111518 | 61 | 228 | 0.0 | 0.0 | 0.00 | 0.00 | 0.00 | 69 | 1014.6 |
| 20260831111013 | 61 | 228 | 0.0 | 0.0 | 0.00 | 0.00 | 0.00 | 71 | 1014.6 |
| 20260831110513 | 62 | 228 | 0.0 | 0.0 | 0.00 | 0.00 | 0.00 | 71 | 1014.6 |
| 20260831110012 | 62 | 228 | 0.0 | 0.0 | 0.00 | 0.00 | 0.00 | 71 | 1014.6 |
| 20260831105512 | 62 | 228 | 0.0 | 0.0 | 0.00 | 0.00 | 0.00 | 69 | 1014.6 |
| 20260831105016 | 62 | 228 | 0.0 | 0.0 | 0.00 | 0.00 | 0.00 | 68 | 1014.6 |
| 20260831104512 | 62 | 228 | 0.0 | 0.0 | 0.00 | 0.00 | 0.00 | 67 | 1014.7 |
| 20260831104010 | 62 | 228 | 0.0 | 0.0 | 0.00 | 0.00 | 0.00 | 66 | 1014.7 |
| 20260831103511 | 62 | 228 | 0.0 | 0.0 | 0.00 | 0.00 | 0.00 | 66 | 1014.7 |
| 20260831102509 | 62 | 228 | 0.0 | 0.0 | 0.00 | 0.00 | 0.00 | 64 | 1014.6 |
| 20260831102009 | 62 | 228 | 0.0 | 0.0 | 0.00 | 0.00 | 0.00 | 64 | 1014.6 |
| 20260831101508 | 62 | 228 | 0.0 | 0.0 | 0.00 | 0.00 | 0.00 | 63 | 1014.6 |
| 20260831101008 | 62 | 228 | 0.0 | 0.0 | 0.00 | 0.00 | 0.00 | 63 | 1014.6 |
| 20260831100507 | 63 | 228 | 0.0 | 0.0 | 0.00 | 0.00 | 0.00 | 63 | 1014.6 |
| 20260831100011 | 63 | 228 | 0.0 | 0.0 | 0.00 | 0.00 | 0.00 | 63 | 1014.5 |
| 20260831095505 | 63 | 228 | 0.0 | 0.0 | 0.00 | 0.00 | 0.00 | 63 | 1014.5 |
| 20260831095005 | 63 | 227 | 0.0 | 0.0 | 0.00 | 0.00 | 0.00 | 63 | 1014.6 |
| 20260831094505 | 63 | 226 | 0.0 | 0.0 | 0.00 | 0.00 | 0.00 | 63 | 1014.6 |
| 20260831094004 | 63 | 226 | 0.0 | 0.0 | 0.00 | 0.00 | 0.00 | 62 | 1014.6 |
| 20260831093503 | 63 | 226 | 0.0 | 0.0 | 0.00 | 0.00 | 0.00 | 63 | 1014.6 |
| 20260831092503 | 64 | 226 | 0.0 | 2.0 | 0.00 | 0.00 | 0.00 | 66 | 1014.6 |
| 20260831092002 | 64 | 222 | 0.0 | 2.0 | 0.00 | 0.00 | 0.00 | 65 | 1014.6 |
| 20260831091501 | 64 | 221 | 0.0 | 5.0 | 0.00 | 0.00 | 0.00 | 66 | 1014.7 |
| 20260831091001 | 65 | 240 | 0.0 | 1.0 | 0.00 | 0.00 | 0.00 | 65 | 1014.8 |
| 20260831090502 | 65 | 265 | 0.0 | 0.0 | 0.00 | 0.00 | 0.00 | 64 | 1014.8 |
| 20260831090001 | 65 | 265 | 0.0 | 4.0 | 0.00 | 0.00 | 0.00 | 63 | 1014.8 |
| 20260831085604 | 66 | 265 | 0.0 | 4.0 | 0.00 | 0.00 | 0.00 | 62 | 1014.8 |
| 20260831085501 | 66 | 265 | 0.0 | 4.0 | 0.00 | 0.00 | 0.00 | 62 | 1014.8 |
| 20260831085059 | 66 | 266 | 0.0 | 3.0 | 0.00 | 0.00 | 0.00 | 59 | 1014.8 |
| 20260831084606 | 66 | 265 | 0.0 | 5.0 | 0.00 | 0.00 | 0.00 | 58 | 1014.8 |
| 20260831084100 | 66 | 270 | 0.0 | 5.0 | 0.00 | 0.00 | 0.00 | 58 | 1014.8 |
| 20260831083600 | 66 | 287 | 0.0 | 5.0 | 0.00 | 0.00 | 0.00 | 58 | 1014.9 |
| 20260831082600 | 67 | 272 | 0.0 | 7.0 | 0.00 | 0.00 | 0.00 | 58 | 1015.0 |
| 20260831082101 | 67 | 265 | 1.0 | 7.0 | 0.00 | 0.00 | 0.00 | 56 | 1015.0 |
| 20260831081633 | 67 | 296 | 1.0 | 6.0 | 0.00 | 0.00 | 0.00 | 54 | 1015.0 |
| 20260831081507 | 67 | 294 | 1.0 | 6.0 | 0.00 | 0.00 | 0.00 | 54 | 1015.1 |
| 20260831081059 | 67 | 305 | 1.0 | 8.0 | 0.00 | 0.00 | 0.00 | 55 | 1015.0 |
| 20260831080559 | 67 | 307 | 1.0 | 8.0 | 0.00 | 0.00 | 0.00 | 52 | 1015.0 |
| 20260831080100 | 68 | 288 | 0.0 | 6.0 | 0.00 | 0.00 | 0.00 | 52 | 1015.1 |
| 20260831075559 | 68 | 303 | 0.0 | 5.0 | 0.00 | 0.00 | 0.00 | 51 | 1015.1 |
| 20260831075100 | 68 | 306 | 1.0 | 6.0 | 0.00 | 0.00 | 0.00 | 52 | 1015.2 |
| 20260831075002 | 68 | 306 | 0.0 | 6.0 | 0.00 | 0.00 | 0.00 | 51 | 1015.1 |
| 20260831074602 | 68 | 319 | 0.0 | 5.0 | 0.00 | 0.00 | 0.00 | 50 | 1015.2 |
| 20260831074101 | 68 | 330 | 1.0 | 5.0 | 0.00 | 0.00 | 0.00 | 49 | 1015.2 |
| 20260831073602 | 69 | 278 | 0.0 | 4.0 | 0.00 | 0.00 | 0.00 | 53 | 1015.2 |
| 20260831072558 | 69 | 279 | 0.0 | 4.0 | 0.00 | 0.00 | 0.00 | 51 | 1015.2 |
| 20260831072058 | 69 | 285 | 0.0 | 4.0 | 0.00 | 0.00 | 0.00 | 51 | 1015.1 |
| 20260831071558 | 69 | 286 | 0.0 | 4.0 | 0.00 | 0.00 | 0.00 | 50 | 1015.1 |
| 20260831071058 | 69 | 255 | 0.0 | 3.0 | 0.00 | 0.00 | 0.00 | 50 | 1015.1 |
| 20260831070600 | 69 | 289 | 0.0 | 5.0 | 0.00 | 0.00 | 0.00 | 49 | 1015.2 |
| 20260831070059 | 69 | 290 | 0.0 | 5.0 | 0.00 | 0.00 | 0.00 | 50 | 1015.1 |
| 20260831065558 | 69 | 256 | 0.0 | 4.0 | 0.00 | 0.00 | 0.00 | 51 | 1015.1 |
| 20260831065059 | 70 | 271 | 0.0 | 5.0 | 0.00 | 0.00 | 0.00 | 48 | 1015.1 |
| 20260831064607 | 70 | 276 | 0.0 | 7.0 | 0.00 | 0.00 | 0.00 | 51 | 1015.2 |
| 20260831064058 | 70 | 273 | 0.0 | 7.0 | 0.00 | 0.00 | 0.00 | 52 | 1015.2 |
| 20260831063558 | 70 | 264 | 0.0 | 6.0 | 0.00 | 0.00 | 0.00 | 51 | 1015.2 |
| 20260831062600 | 70 | 270 | 1.0 | 6.0 | 0.00 | 0.00 | 0.00 | 51 | 1015.3 |
| 20260831062058 | 70 | 283 | 0.0 | 7.0 | 0.00 | 0.00 | 0.00 | 50 | 1015.3 |
| 20260831061558 | 70 | 225 | 1.0 | 7.0 | 0.00 | 0.00 | 0.00 | 49 | 1015.3 |
| 20260831061059 | 71 | 257 | 0.0 | 7.0 | 0.00 | 0.00 | 0.00 | 48 | 1015.3 |
| 20260831060557 | 71 | 263 | 0.0 | 7.0 | 0.00 | 0.00 | 0.00 | 48 | 1015.3 |
| 20260831060110 | 71 | 230 | 1.0 | 8.0 | 0.00 | 0.00 | 0.00 | 47 | 1015.2 |
| 20260831055557 | 71 | 240 | 1.0 | 5.0 | 0.00 | 0.00 | 0.00 | 46 | 1015.3 |
| 20260831055059 | 71 | 226 | 0.0 | 5.0 | 0.00 | 0.00 | 0.00 | 46 | 1015.2 |
| 20260831054559 | 71 | 194 | 0.0 | 5.0 | 0.00 | 0.00 | 0.00 | 45 | 1015.2 |
| 20260831054057 | 71 | 228 | 0.0 | 4.0 | 0.00 | 0.00 | 0.00 | 46 | 1015.3 |
| 20260831053558 | 71 | 236 | 0.0 | 4.0 | 0.00 | 0.00 | 0.00 | 47 | 1015.3 |
| 20260831052556 | 72 | 259 | 0.0 | 5.0 | 0.00 | 0.00 | 0.00 | 46 | 1015.4 |
| 20260831052057 | 72 | 236 | 0.0 | 5.0 | 0.00 | 0.00 | 0.00 | 44 | 1015.4 |
| 20260831051556 | 72 | 221 | 0.0 | 6.0 | 0.00 | 0.00 | 0.00 | 45 | 1015.5 |
| 20260831051056 | 72 | 211 | 0.0 | 6.0 | 0.00 | 0.00 | 0.00 | 45 | 1015.5 |
| 20260831050556 | 72 | 251 | 0.0 | 5.0 | 0.00 | 0.00 | 0.00 | 46 | 1015.5 |
| 20260831050136 | 72 | 272 | 0.0 | 6.0 | 0.00 | 0.00 | 0.00 | 46 | 1015.5 |
| 20260831045556 | 73 | 212 | 0.0 | 8.0 | 0.00 | 0.00 | 0.00 | 45 | 1015.5 |
| 20260831045056 | 73 | 219 | 0.0 | 8.0 | 0.00 | 0.00 | 0.00 | 43 | 1015.5 |
| 20260831044556 | 73 | 181 | 1.0 | 8.0 | 0.00 | 0.00 | 0.00 | 44 | 1015.6 |
| 20260831044058 | 73 | 194 | 1.0 | 12.0 | 0.00 | 0.00 | 0.00 | 45 | 1015.5 |
| 20260831043555 | 73 | 199 | 1.0 | 12.0 | 0.00 | 0.00 | 0.00 | 44 | 1015.5 |
| 20260831042556 | 73 | 178 | 0.0 | 7.0 | 0.00 | 0.00 | 0.00 | 43 | 1015.4 |
| 20260831042056 | 73 | 192 | 1.0 | 7.0 | 0.00 | 0.00 | 0.00 | 43 | 1015.4 |
| 20260831041556 | 73 | 192 | 0.0 | 9.0 | 0.00 | 0.00 | 0.00 | 43 | 1015.3 |
| 20260831041057 | 73 | 202 | 0.0 | 9.0 | 0.00 | 0.00 | 0.00 | 44 | 1015.3 |
| 20260831040556 | 73 | 210 | 3.0 | 9.0 | 0.00 | 0.00 | 0.00 | 44 | 1015.3 |
| 20260831040056 | 73 | 191 | 2.0 | 12.0 | 0.00 | 0.00 | 0.00 | 44 | 1015.2 |
| 20260831035556 | 73 | 202 | 4.0 | 12.0 | 0.00 | 0.00 | 0.00 | 45 | 1015.2 |
| 20260831035055 | 73 | 190 | 4.0 | 12.0 | 0.00 | 0.00 | 0.00 | 46 | 1015.1 |
| 20260831034556 | 74 | 242 | 0.0 | 12.0 | 0.00 | 0.00 | 0.00 | 45 | 1015.0 |
| 20260831034055 | 74 | 211 | 2.0 | 9.0 | 0.00 | 0.00 | 0.00 | 46 | 1015.1 |
| 20260831033555 | 74 | 204 | 2.0 | 14.0 | 0.00 | 0.00 | 0.00 | 45 | 1014.9 |
| 20260831032555 | 74 | 199 | 5.0 | 13.0 | 0.00 | 0.00 | 0.00 | 44 | 1014.9 |
| 20260831032059 | 74 | 172 | 4.0 | 14.0 | 0.00 | 0.00 | 0.00 | 44 | 1014.8 |
| 20260831031556 | 75 | 193 | 3.0 | 15.0 | 0.00 | 0.00 | 0.00 | 44 | 1014.8 |
| 20260831031055 | 75 | 168 | 5.0 | 13.0 | 0.00 | 0.00 | 0.00 | 44 | 1014.7 |
| 20260831030555 | 75 | 204 | 3.0 | 14.0 | 0.00 | 0.00 | 0.00 | 44 | 1014.7 |
| 20260831030059 | 75 | 214 | 5.0 | 14.0 | 0.00 | 0.00 | 0.00 | 43 | 1014.7 |
| 20260831025555 | 76 | 175 | 3.0 | 12.0 | 0.00 | 0.00 | 0.00 | 43 | 1014.7 |
| 20260831025058 | 76 | 221 | 4.0 | 13.0 | 0.00 | 0.00 | 0.00 | 43 | 1014.7 |
| 20260831024556 | 76 | 186 | 4.0 | 14.0 | 0.00 | 0.00 | 0.00 | 43 | 1014.6 |
| 20260831024055 | 76 | 226 | 3.0 | 13.0 | 0.00 | 0.00 | 0.00 | 43 | 1014.6 |
| 20260831023555 | 77 | 211 | 6.0 | 15.0 | 0.00 | 0.00 | 0.00 | 42 | 1014.6 |
| 20260831022556 | 77 | 211 | 6.0 | 14.0 | 0.00 | 0.00 | 0.00 | 42 | 1014.6 |
| 20260831022054 | 78 | 222 | 4.0 | 13.0 | 0.00 | 0.00 | 0.00 | 41 | 1014.6 |
| 20260831021555 | 78 | 220 | 4.0 | 13.0 | 0.00 | 0.00 | 0.00 | 41 | 1014.5 |
| 20260831021054 | 79 | 197 | 4.0 | 13.0 | 0.00 | 0.00 | 0.00 | 41 | 1014.5 |
| 20260831020554 | 79 | 167 | 6.0 | 17.0 | 0.00 | 0.00 | 0.00 | 40 | 1014.5 |
| 20260831020054 | 80 | 200 | 4.0 | 17.0 | 0.00 | 0.00 | 0.00 | 39 | 1014.5 |
| 20260831015553 | 80 | 176 | 6.0 | 15.0 | 0.00 | 0.00 | 0.00 | 39 | 1014.5 |
| 20260831015055 | 80 | 206 | 4.0 | 12.0 | 0.00 | 0.00 | 0.00 | 40 | 1014.5 |
| 20260831014553 | 81 | 205 | 4.0 | 10.0 | 0.00 | 0.00 | 0.00 | 41 | 1014.4 |
| 20260831014053 | 81 | 174 | 2.0 | 10.0 | 0.00 | 0.00 | 0.00 | 39 | 1014.4 |
| 20260831013553 | 82 | 224 | 3.0 | 10.0 | 0.00 | 0.00 | 0.00 | 36 | 1014.4 |
| 20260831012531 | 83 | 174 | 2.0 | 10.0 | 0.00 | 0.00 | 0.00 | 36 | 1014.5 |
| 20260831012033 | 83 | 183 | 0.0 | 8.0 | 0.00 | 0.00 | 0.00 | 36 | 1014.4 |
| 20260831011537 | 84 | 215 | 1.0 | 9.0 | 0.00 | 0.00 | 0.00 | 34 | 1014.5 |
| 20260831011030 | 84 | 176 | 1.0 | 9.0 | 0.00 | 0.00 | 0.00 | 32 | 1014.5 |
| 20260831010530 | 85 | 248 | 0.0 | 9.0 | 0.00 | 0.00 | 0.00 | 32 | 1014.4 |
| 20260831010030 | 85 | 184 | 2.0 | 9.0 | 0.00 | 0.00 | 0.00 | 30 | 1014.4 |
| 20260831005530 | 86 | 198 | 0.0 | 4.0 | 0.00 | 0.00 | 0.00 | 32 | 1014.5 |
| 20260831005032 | 87 | 251 | 0.0 | 2.0 | 0.00 | 0.00 | 0.00 | 31 | 1014.5 |
| 20260831004530 | 87 | 242 | 0.0 | 3.0 | 0.00 | 0.00 | 0.00 | 31 | 1014.5 |
| 20260831004030 | 88 | 242 | 0.0 | 3.0 | 0.00 | 0.00 | 0.00 | 26 | 1014.5 |
| 20260831003529 | 88 | 239 | 0.0 | 4.0 | 0.00 | 0.00 | 0.00 | 24 | 1014.5 |
| 20260831002550 | 88 | 217 | 0.0 | 4.0 | 0.00 | 0.00 | 0.00 | 19 | 1014.6 |
| 20260831002050 | 89 | 202 | 0.0 | 2.0 | 0.00 | 0.00 | 0.00 | 19 | 1014.7 |
| 20260831001549 | 90 | 192 | 0.0 | 2.0 | 0.00 | 0.00 | 0.00 | 18 | 1014.7 |
| 20260831001049 | 90 | 180 | 0.0 | 2.0 | 0.00 | 0.00 | 0.00 | 19 | 1014.8 |
| 20260831000549 | 90 | 180 | 0.0 | 2.0 | 0.00 | 0.00 | 0.00 | 21 | 1014.7 |
| 20260831000057 | 90 | 180 | 0.0 | 0.0 | 0.00 | 0.00 | 0.00 | 19 | 1014.7 |
| 20260830235547 | 90 | 179 | 0.0 | 0.0 | 0.00 | 0.00 | 0.00 | 19 | 1014.7 |
| 20260830235047 | 91 | 179 | 0.0 | 0.0 | 0.00 | 0.00 | 0.00 | 19 | 1014.8 |
| 20260830234601 | 91 | 179 | 0.0 | 0.0 | 0.00 | 0.00 | 0.00 | 20 | 1014.8 |
| 20260830232511 | 90 | 179 | 0.0 | 1.0 | 0.00 | 0.00 | 0.00 | 19 | 1014.9 |
| 20260830232001 | 91 | 179 | 0.0 | 1.0 | 0.00 | 0.00 | 0.00 | 19 | 1015.0 |
| 20260830231601 | 91 | 170 | 0.0 | 0.0 | 0.00 | 0.00 | 0.00 | 19 | 1015.0 |
| 20260830231102 | 91 | 170 | 0.0 | 0.0 | 0.00 | 0.00 | 0.00 | 18 | 1015.1 |
| 20260830230603 | 91 | 170 | 0.0 | 0.0 | 0.00 | 0.00 | 0.00 | 20 | 1015.1 |
| 20260830230059 | 92 | 170 | 0.0 | 0.0 | 0.00 | 0.00 | 0.00 | 19 | 1015.2 |